Orbital elements:
    P/2002 T5 (LINEAR)
Epoch 2003 June 10.0 TT = JDT 2452800.5
T 2003 June 27.85981 TT                                 MPC
q   3.9340924            (2000.0)            P               Q
n   0.05339459     Peri.  326.75949     -0.06661114     -0.90078561
a   6.9845411      Node   123.33148     +0.99023560     -0.11246608
e   0.4367429      Incl.   30.90467     +0.12245988     +0.41944805
P  18.46
Residuals in seconds of arc
021005 704  0.3+  0.7+    021124 699  0.8-  0.4+    030111 E14  0.2-  0.0
021005 704 (2.4+  0.1+)   021124 699  1.1-  0.1+    030111 E14  0.2+  0.2+
021005 704  0.1-  0.3+    021126 704  0.7+  0.9-    030111 E14  0.2+  0.2+
021005 704  0.3+  0.9-    021126 704  0.5+  0.9-    030113 448  0.1+  0.2+
021006 704  0.5+  1.0+    021126 704  0.3-  0.2+    030113 448  0.3+  0.1+
021006 704  1.0+  0.5+    021128 360  0.2+  0.3-    030113 448  0.6+  0.6+
021006 704  0.7+  0.4+    021128 360  0.1+  0.6-    030113 448  0.2+  0.2+
021006 704  0.4+  0.3-    021128 355  0.5-  0.4-    030114 644  0.0   0.0
021006 704  0.3+  1.2-    021128 355  0.2+  0.8-    030114 644  0.4+  0.3-
021011 704  0.5+  1.2+    021128 355  0.0   1.0-    030114 644  0.4+  0.2-
021011 704  1.4+  0.3+    021129 H43 (3.9+  4.0-)   030116 204  0.6+  0.8+
021011 704  0.5+  0.1+    021129 H43  0.6+  0.6-    030116 204  0.6+  0.5+
021011 704  1.0+  0.1-    021129 213  0.2-  0.9-    030116 204  0.1+  0.5+
021011 704  0.3-  0.9-    021129 213  0.8-  0.5+    030116 204  0.3+  0.1-
021012 704  1.9+  1.1+    021129 170  0.0   0.2-    030117 246  0.0   0.2+
021012 704  0.9+  0.1-    021129 170  1.6-  0.4-    030117 246  0.0   0.3+
021012 704  0.0   0.1+    021129 170  0.4+  0.2-    030117 246  0.0   0.5+
021018 850  0.6-  0.2-    021130 704  0.2+  0.1+    030117 246  0.0   0.1-
021018 850  0.0   0.5-    021130 704  0.5+  0.0     030117 246  0.5+  0.1+
021018 850  0.4-  0.4+    021130 704  0.7+  0.1-    030124 644  0.1-  0.1+
021018 850  0.1+  0.7+    021130 704  0.6+  0.5-    030124 644  0.0   0.2+
021018 734  0.0   0.2+    021130 704  0.1+  0.1+    030124 644  0.0   0.3+
021018 734  0.3+  0.3+    021130 704  0.4+  0.4+    030124 J87  0.5+  1.0+
021018 734  0.1+  0.3+    021130 704  0.2+  0.3+    030124 A03  0.1+  1.0-
021018 413  0.6+  0.1+    021130 704  0.1+  0.9+    030124 A03  1.0-  0.2+
021018 413  0.7+  0.1+    021130 704  1.0-  0.6+    030124 J87  0.3+  0.1+
021018 413  0.7+  0.0     021130 704  0.8-  0.9+    030124 232  0.2-  0.4-
021019 J95  0.3-  0.1+    021201 704  0.6+  0.3+    030124 232  0.0   0.6-
021019 J95  0.5+  0.8-    021201 704  0.4+  0.7+    030124 232  0.3+  0.6-
021019 J95  0.4-  0.9-    021201 704  0.3-  0.2+    030125 587  0.1-  0.4+
021020 176  0.2+  0.4+    021201 704  0.2+  0.1+    030125 587  0.2+  0.1+
021020 176  0.3+  0.4+    021201 704  0.5-  0.3-    030125 587  0.0   0.4+
021020 176  0.2+  0.2+    021206 H43  0.5+  1.6+    030125 213  1.4+  1.2+
021020 176  0.1+  0.1+    021206 232  0.1-  0.2+    030125 213  0.5+  0.0
021020 176  0.1+  0.1+    021206 232  0.0   0.3+    030125 213  0.3+  0.3+
021020 620  0.3+  0.1-    021206 232  0.3-  0.3-    030129 704  0.5+  0.5-
021020 620  0.9+  0.3-    021207 H43  0.8-  1.4+    030129 704  1.0+  0.2+
021020 620  0.1-  1.0-    021210 340  1.4+  0.2-    030129 704  0.5+  0.4-
021020 620  0.2-  0.2+    021210 340  0.5+  0.8-    030129 704  0.9+  0.1-
021020 649  0.4+  0.2+    021210 340  1.8+  0.9-    030129 704  0.1+  1.3+
021020 670  1.6+  0.5+    021210 340  1.3+  0.8-    030130 608  0.1-  0.3+
021020 670  1.1+  0.5-    021210 340  0.7+  0.6-    030130 608  0.2-  0.3+
021020 649  0.6+  0.1+    021212 608  1.2-  0.4+    030130 608  0.3-  0.3+
021020 649  0.4+  0.3+    021212 608  0.4-  0.6+    030131 232  1.8+  1.9+
021022 448  0.4-  0.3-    021212 608  0.9-  0.5+    030131 232 (0.4+  4.5+)
021022 448  0.3+  0.5-    021213 673  0.3+  0.3-    030201 J87  0.7+  0.5+
021022 448  0.4+  0.2-    021213 673  0.4+  0.3-    030201 J87  0.7+  0.7+
021025 213  0.0   0.3-    021213 673  0.2+  0.2-    030201 215  0.2+  0.6+
021025 213  0.2+  0.6-    021213 673  0.0   0.1+    030201 215  0.5+  0.7+
021025 213  0.1-  0.7-    021214 340  0.9-  0.6-    030201 215  0.4+  0.3+
021025 213  0.2-  0.4-    021214 340 (2.0-  2.7+)   030201 J87  1.7+  0.6+
021026 170  0.4-  0.5+    021214 340 (2.2-  0.8+)   030201 048  1.4-  0.4-
021026 170  0.2+  0.1-    021214 340  0.5+  0.2+    030201 048  2.0-  0.6-
021028 J95  0.4-  0.5+    021222 340  0.4+  1.0+    030201 048  1.1-  0.2-
021028 J95  0.2-  0.4+    021222 340  1.4+  0.2+    030201 048  0.9-  0.3+
021028 704  0.8+  0.2-    021222 340  0.5-  1.4-    030201 A02  0.1-  0.4+
021028 704  0.7-  0.1+    021224 340  0.1-  1.1-    030201 A02  0.0   0.4+
021028 704  0.1+  0.7-    021224 340  1.0+  0.3+    030201 A02  0.3+  0.6+
021028 704  0.3+  0.4-    021224 340  0.9-  1.0+    030202 213  1.8-  0.5-
021028 704  1.1-  1.3-    021226 340  0.2-  0.1-    030202 213 (2.5-  0.9-)
021029 349  1.6-  0.2+    021226 340  1.2-  1.8-    030203 360  0.2-  0.3-
021029 349  0.7-  0.7-    021226 340  0.6+  0.4+    030203 360  0.2-  0.1-
021029 349  1.2-  0.7-    021226 340  0.1-  1.3-    030205 235  0.9+  1.5+
021029 349  1.9-  0.2-    021227 360  0.0   0.4-    030221 048  0.2+  1.4-
021029 349  0.8-  1.1+    021227 360  0.2+  0.5-    030221 048  0.8+  0.6-
021103 349  0.0   0.3+    021228 349  0.5-  0.3-    030221 048  0.1-  1.2-
021103 349  0.2+  0.0     021228 349  0.5-  0.5-    030221 048  0.8-  1.3-
021103 349  0.4+  0.2-    021228 349  0.0   0.2-    030221 048  0.9-  0.3-
021103 349  0.4+  0.0     021228 349  0.0   0.5-    030222 048  1.0+  0.1-
021104 349  0.3+  0.4+    021228 A02  0.8-  0.0     030222 048  0.6+  0.5+
021104 349  0.8-  0.5+    021228 A02  0.3-  0.2+    030222 048  0.2+  0.3+
021104 349  0.9-  0.6+    021228 A02  0.7-  0.1+    030222 048  0.1-  0.1-
021104 349  0.8-  1.1-    021229 340  0.3-  0.4-    030222 048  0.1+  0.5-
021105 204  0.0   0.2+    021229 340  0.6-  0.8-    030222 048  0.5-  0.1+
021105 204  0.5-  0.2+    021229 340  0.9-  0.1+    030222 048  0.2+  0.4-
021105 204  0.5-  0.3+    021229 340  0.6+  0.2-    030222 048  0.0   0.3-
021105 204  0.4-  0.4+    030102 349  0.2-  1.0-    030222 048  0.0   0.7-
021105 644  0.4+  0.2-    030102 349  0.4+  0.9-    030222 048  1.0-  0.8-
021105 644  0.3-  0.7+    030102 349  0.2+  0.7-    030223 048  0.2+  0.5-
021105 644  0.0   0.1+    030102 349  0.3+  0.6-    030223 048  0.4+  0.7-
021105 360  0.0   0.3+    030102 349  0.3-  0.4-    030223 048  0.3+  0.9-
021105 360  0.5-  0.4+    030103 704  0.0   0.3+    030223 048  1.0-  0.1-
021111 670  0.6+  1.0+    030103 704  0.9+  0.0     030223 048  0.1+  0.0
021111 670  0.3+  1.4+    030103 704  0.4+  1.0+    030223 048  0.5-  0.1-
021112 360  0.3+  0.5-    030103 699  0.8-  0.6+    030223 048  0.2+  0.1+
021112 360  0.5+  0.6-    030103 699  1.6-  0.2+    030223 048  0.4-  0.3+
021112 246  0.2-  0.2-    030103 699  0.4-  0.1+    030223 048  1.3-  0.1-
021112 246  0.2-  0.4-    030103 699  0.6-  0.3+    030223 048  0.9+  0.1-
021112 246  0.1-  0.1-    030103 232  0.2-  1.4+    030228 349 (0.7+  2.1-)
021112 246  0.0   0.2-    030103 232  0.2-  0.1+    030228 349  1.7+  0.8-
021114 644  0.4-  0.1+    030103 232  0.2+  0.2+    030228 349  0.3-  0.8-
021114 644  0.4-  0.1+    030104 348  0.0   0.8+    030307 H43  1.0-  0.4+
021114 644  0.3-  0.0     030104 348  1.0-  1.8+    030307 H43  0.5+  0.8-
021115 699  0.9-  0.0     030104 A02  0.9-  0.8-    030326 360  0.4+  0.3+
021115 699  1.2-  0.6+    030104 A02  1.7-  0.8+    030326 360  0.3+  0.1+
021115 699  1.9-  0.1+    030106 360  0.3+  0.3-    030913 349  1.3+  0.2-
021115 699  1.1-  0.1-    030106 360  0.2+  0.0     030913 349  0.0   0.5-
021116 699  1.1-  0.7+    030106 340  1.2+  0.4-    030913 349  0.3+  0.6+
021116 699  1.0-  0.1-    030106 340  0.1-  0.7-    030913 349  0.6+  0.2+
021116 699  1.4-  0.0     030108 360  0.1-  0.5-    030919 048  0.9+  0.5+
021116 699  0.8+  0.3-    030108 360  0.0   0.6-    030919 048  0.6+  0.4+
021116 170 (0.4-  2.6+)   030110 213  0.6+  0.1+    030922 349  1.6-  0.0
021116 170  0.0   0.4+    030110 213  0.7-  1.2+    030922 349  1.1-  0.1+
021122 213  0.1-  0.6+    030110 213 (2.0+  2.2+)   030922 349  0.4-  0.2+
021122 213  0.3+  0.4-    030111 349  0.6-  0.6-    030922 349  0.4-  0.1-
021124 699  0.8-  0.5+    030111 349  0.6+  0.8-
021124 699  0.3+  0.0     030111 349  0.9+  0.4-

